This is the latest recevied weather packets stored in our database for station/object KA1JKB. If no packets are shown the sender has not sent any weather packets the latest 10 day(s).
| Time | Temp. | Humidity | Pressure | Rain* | Wind** | Luminosity | Snow |
|---|---|---|---|---|---|---|---|
| 1787610169 | 23.89° C | 62% | 1014.3 hPa | 0 mm | - | 253 W/m² | - |
| 1787609869 | 23.89° C | 60% | 1014.2 hPa | 0 mm | - | 316 W/m² | - |
| 1787609563 | 24.44° C | 60% | 1014.2 hPa | 0 mm | - | 321 W/m² | - |
| 1787609263 | 24.44° C | 61% | 1014 hPa | 0 mm | - | 335 W/m² | - |
| 1787608962 | 23.89° C | 61% | 1014.1 hPa | 0 mm | - | 385 W/m² | - |
| 1787608657 | 23.89° C | 61% | 1014.2 hPa | 0 mm | - | 140 W/m² | - |
| 1787608352 | 23.33° C | 63% | 1014.2 hPa | 0 mm | - | 425 W/m² | - |
| 1787608050 | 23.89° C | 61% | 1014 hPa | 0 mm | - | 139 W/m² | - |
| 1787607745 | 23.89° C | 62% | 1013.9 hPa | 0 mm | - | 305 W/m² | - |
| 1787607442 | 24.44° C | 60% | 1013.9 hPa | 0 mm | - | 481 W/m² | - |
| 1787607140 | 23.89° C | 59% | 1013.9 hPa | 0 mm | - | 456 W/m² | - |
| 1787606839 | 24.44° C | 62% | 1014 hPa | 0 mm | - | 430 W/m² | - |
| 1787606538 | 24.44° C | 62% | 1014.1 hPa | 0 mm | - | 501 W/m² | - |
| 1787606237 | 24.44° C | 63% | 1013.9 hPa | 0 mm | - | 153 W/m² | - |
| 1787605937 | 24.44° C | 61% | 1013.6 hPa | 0 mm | - | 510 W/m² | - |
| 1787605635 | 25° C | 59% | 1013.8 hPa | 0 mm | - | 516 W/m² | - |
| 1787605332 | 24.44° C | 59% | 1013.7 hPa | 0 mm | - | 505 W/m² | - |
| 1787605027 | 24.44° C | 63% | 1013.8 hPa | 0 mm | - | 528 W/m² | - |
| 1787604726 | 24.44° C | 62% | 1013.6 hPa | 0 mm | - | 510 W/m² | - |
| 1787604422 | 23.89° C | 60% | 1013.6 hPa | 0 mm | - | 528 W/m² | - |
| 1787604121 | 24.44° C | 59% | 1013.7 hPa | 0 mm | - | 538 W/m² | - |
| 1787603821 | 24.44° C | 62% | 1013.7 hPa | 0 mm | - | 530 W/m² | - |
| 1787603516 | 24.44° C | 59% | 1013.5 hPa | 0 mm | - | 532 W/m² | - |
| 1787603212 | 24.44° C | 60% | 1013.5 hPa | 0 mm | - | 555 W/m² | - |
| 1787602908 | 24.44° C | 62% | 1013.4 hPa | 0 mm | - | 575 W/m² | - |
* Rain latest hour (hover to see other rain measurements)
** Current wind speed in m/s (hover to see current wind gust speed)